Change the Weather History Date:

Saturday, March 30, 2013

  Actual Average Record
Temperature  
Mean Temperature 38 °F -  
Max Temperature 43 °F 50 °F 52 °F (2014)
Min Temperature 33 °F 40 °F 33 °F (2013)
Degree Days  
Heating Degree Days 27    
Moisture  
Dew Point 23 °F    
Average Humidity 54    
Maximum Humidity 70    
Minimum Humidity 34    
Precipitation  
Precipitation 0.00 in 0.08 in - ()
Sea Level Pressure  
Sea Level Pressure 29.97 in    
Wind  
Wind Speed 13 mph ()    
Max Wind Speed 20 mph    
Max Gust Speed -    
Visibility 6.7 miles    
Events      
Averages and records for this station are not official NWS values.
T = Trace of Precipitation, MM = Missing Value Source: Averaged Metar Reports

Daily Weather History Graph

Daily Weather History Graph

Search for Another Location

Airport or City:

Trip Planner

Search our weather history database for the weather conditions in past years. The results will help you decide how hot, cold, wet, or windy it might be!

Date:

Astronomy

Mar. 30, 2013 Rise Set
Actual Time 6:02 AM GMT 7:02 PM GMT
Civil Twilight 5:24 AM GMT 7:40 PM GMT
Nautical Twilight 4:37 AM GMT 8:27 PM GMT
Astronomical Twilight 3:46 AM GMT 9:19 PM GMT
Moon 11:42 PM GMT (3/30) 7:05 AM GMT (3/30)
Length of Visible Light 14h 16m
Length of Day
12h 59m
Waning Gibbous, 88% of the Moon is Illuminated
Mar 30
Waning Gibbous
Apr 3
Last Quarter
Apr 10
New
Apr 18
First Quarter
Apr 25
Full

Hourly Weather History & Observations

Time (GMT) Temp. Windchill Dew Point Humidity Pressure Visibility Wind Dir Wind Speed Gust Speed Precip Events Conditions
12:20 AM 35.6 °F 24.8 °F 24.8 °F 65% 29.95 in 6.2 mi SE 19.6 mph - N/A   Unknown
12:50 AM 35.6 °F 25.5 °F 24.8 °F 65% 29.95 in 6.2 mi SE 17.3 mph - N/A   Unknown
1:20 AM 35.6 °F 25.5 °F 24.8 °F 65% 29.95 in 6.2 mi SE 17.3 mph - N/A   Unknown
1:50 AM 35.6 °F 25.9 °F 24.8 °F 65% 29.95 in 6.2 mi SE 16.1 mph - N/A   Unknown
2:20 AM 35.6 °F 26.2 °F 24.8 °F 65% 29.95 in 6.2 mi SE 15.0 mph - N/A   Unknown
2:50 AM 34 °F - 25 °F 58% 29.97 in 25 mi SE 13.8 mph - -   Scattered Clouds
2:50 AM 33.8 °F 24.3 °F 24.8 °F 70% 29.95 in 6.2 mi SE 13.8 mph - N/A   Unknown
3:20 AM 33.8 °F 23.9 °F 24.8 °F 70% 29.95 in 6.2 mi SE 15.0 mph - N/A   Unknown
3:50 AM 33.8 °F 24.3 °F 24.8 °F 70% 29.95 in 6.2 mi SE 13.8 mph - N/A   Unknown
4:20 AM 33.8 °F 24.3 °F 24.8 °F 70% 29.98 in 6.2 mi SE 13.8 mph - N/A   Unknown
4:50 AM 33.8 °F 23.9 °F 24.8 °F 70% 29.98 in 6.2 mi SE 15.0 mph - N/A   Unknown
5:20 AM 33.8 °F 24.3 °F 24.8 °F 70% 29.98 in 6.2 mi SE 13.8 mph - N/A   Unknown
5:50 AM 34 °F - 26 °F 61% 29.98 in 18 mi SE 15.0 mph - -  
5:50 AM 33.8 °F 23.9 °F 24.8 °F 70% 29.98 in 6.2 mi SE 15.0 mph - N/A   Unknown
6:20 AM 35.6 °F 26.2 °F 24.8 °F 65% 29.98 in 6.2 mi SSE 15.0 mph - N/A   Unknown
6:50 AM 35.6 °F 26.6 °F 24.8 °F 65% 29.98 in 6.2 mi SSE 13.8 mph - N/A   Unknown
7:20 AM 35.6 °F 27.1 °F 23.0 °F 60% 29.98 in 6.2 mi SSE 12.7 mph - N/A   Unknown
7:50 AM 37.4 °F 28.9 °F 26.6 °F 65% 29.98 in 6.2 mi SE 13.8 mph - N/A   Unknown
8:20 AM 37.4 °F 29.8 °F 21.2 °F 52% 29.98 in 6.2 mi SSE 11.5 mph - N/A   Unknown
8:50 AM 39 °F - 24 °F 43% 29.99 in 14 mi SSE 12.7 mph - -  
8:50 AM 39.2 °F 31.6 °F 24.8 °F 56% 29.98 in - SSE 12.7 mph - N/A   Clear
9:20 AM 39.2 °F 31.6 °F 26.6 °F 61% 29.98 in 6.2 mi SE 12.7 mph - N/A   Partly Cloudy
9:50 AM 41.0 °F 34.3 °F 24.8 °F 53% 29.98 in 6.2 mi SE 11.5 mph - N/A   Partly Cloudy
10:20 AM 39.2 °F 31.6 °F 24.8 °F 56% 29.98 in 6.2 mi SE 12.7 mph - N/A   Partly Cloudy
10:50 AM 41.0 °F 33.9 °F 24.8 °F 53% 29.98 in 6.2 mi SSE 12.7 mph - N/A   Partly Cloudy
11:20 AM 39.2 °F 31.2 °F 21.2 °F 49% 29.98 in 6.2 mi SSE 13.8 mph - N/A   Partly Cloudy
11:50 AM 41 °F - 23 °F 36% 30.00 in 14 mi SSE 15.0 mph - -   Scattered Clouds
11:50 AM 41.0 °F 33.1 °F 23.0 °F 49% 29.98 in 6.2 mi SSE 15.0 mph - N/A   Partly Cloudy
12:20 PM 41.0 °F 33.1 °F 21.2 °F 45% 29.98 in 6.2 mi SSE 15.0 mph - N/A   Partly Cloudy
12:50 PM 41.0 °F 33.9 °F 24.8 °F 53% 29.98 in 6.2 mi SSE 12.7 mph - N/A   Partly Cloudy
1:20 PM 39.2 °F 31.6 °F 23.0 °F 52% 29.98 in 6.2 mi SSE 12.7 mph - N/A   Partly Cloudy
1:50 PM 41.0 °F 33.9 °F 24.8 °F 53% 29.98 in 6.2 mi SSE 12.7 mph - N/A   Unknown
2:20 PM 41.0 °F 34.3 °F 23.0 °F 49% 29.98 in 6.2 mi SSE 11.5 mph - N/A   Unknown
2:50 PM 40 °F - 22 °F 35% 29.98 in 25 mi South 11.5 mph - -   Mostly Cloudy
2:50 PM 41.0 °F 34.3 °F 21.2 °F 45% 29.98 in 6.2 mi South 11.5 mph - N/A   Mostly Cloudy
3:20 PM 41.0 °F 33.5 °F 21.2 °F 45% 29.98 in 6.2 mi SSE 13.8 mph - N/A   Mostly Cloudy
3:50 PM 41.0 °F 34.3 °F 23.0 °F 49% 29.98 in 6.2 mi SSE 11.5 mph - N/A   Scattered Clouds
4:20 PM 41.0 °F 34.3 °F 23.0 °F 49% 29.98 in 6.2 mi South 11.5 mph - N/A   Scattered Clouds
4:50 PM 39.2 °F 31.6 °F 19.4 °F 45% 29.95 in 6.2 mi South 12.7 mph - N/A   Scattered Clouds
5:20 PM 39.2 °F 31.6 °F 21.2 °F 49% 29.95 in 6.2 mi South 12.7 mph - N/A   Mostly Cloudy
5:50 PM 39 °F - 21 °F 34% 29.97 in 31 mi SSE 12.7 mph - -   Mostly Cloudy
5:50 PM 39.2 °F 31.6 °F 21.2 °F 49% 29.95 in 6.2 mi SSE 12.7 mph - N/A   Mostly Cloudy
6:20 PM 39.2 °F 31.2 °F 21.2 °F 49% 29.95 in 6.2 mi SSE 13.8 mph - N/A   Mostly Cloudy
6:50 PM 39.2 °F 32.0 °F 21.2 °F 49% 29.95 in 6.2 mi SSE 11.5 mph - N/A   Mostly Cloudy
7:20 PM 39.2 °F 31.2 °F 21.2 °F 49% 29.98 in 6.2 mi SSE 13.8 mph - N/A   Mostly Cloudy
7:50 PM 39.2 °F 31.6 °F 19.4 °F 45% 29.98 in 6.2 mi SSE 12.7 mph - N/A   Mostly Cloudy
8:20 PM 39.2 °F 32.0 °F 23.0 °F 52% 29.98 in 6.2 mi South 11.5 mph - N/A   Mostly Cloudy
8:50 PM 39 °F - 22 °F 36% 29.98 in 28 mi SSE 16.1 mph - -   Mostly Cloudy
8:50 PM 39.2 °F 30.5 °F 21.2 °F 49% 29.98 in 6.2 mi SSE 16.1 mph - N/A   Mostly Cloudy
9:20 PM 39.2 °F 30.5 °F 21.2 °F 49% 29.98 in 6.2 mi SSE 16.1 mph - N/A   Overcast
9:50 PM 39.2 °F 30.5 °F 21.2 °F 49% 29.98 in 6.2 mi SSE 16.1 mph - N/A   Overcast
10:20 PM 39.2 °F 30.8 °F 24.8 °F 56% 29.98 in 6.2 mi South 15.0 mph - N/A   Overcast
10:50 PM 39.2 °F 30.2 °F 23.0 °F 52% 29.98 in 6.2 mi South 17.3 mph - N/A   Overcast
11:20 PM 39.2 °F 31.6 °F 24.8 °F 56% 29.98 in 6.2 mi South 12.7 mph - N/A   Overcast
11:50 PM 39 °F - 23 °F 40% 29.99 in 25 mi South 13.8 mph - -   Overcast
11:50 PM 39.2 °F 31.2 °F 23.0 °F 52% 29.98 in 6.2 mi South 13.8 mph - N/A   Overcast